DW0542 Weather Reports


time (UTC)temp
F
wind
direction
speed
knots
gust
knots
rain 1hr
in
rain 24hr
in
rain mn
in
humidity
%
barometer
mb
20260903213018 78 245 0.0 2.6 0.00 0.51 0.51 78 1011.5
20260903211516 78 249 0.0 0.0 0.00 0.51 0.51 77 1011.3
20260903210047 78 249 0.0 0.0 0.00 0.51 0.51 76 1011.4
20260903204546 78 255 0.0 0.9 0.00 0.51 0.51 77 1011.4
20260903203043 79 276 0.0 3.5 0.00 0.51 0.51 73 1011.4
20260903201542 79 277 0.0 0.9 0.00 0.51 0.51 74 1011.4
20260903200041 79 277 0.0 0.0 0.00 0.51 0.51 74 1011.5
20260903194538 79 277 0.0 0.0 0.00 0.51 0.51 75 1011.7
20260903193032 78 277 0.0 0.0 0.00 0.51 0.51 76 1011.8
20260903191546 78 277 0.0 0.0 0.00 0.51 0.51 75 1011.9
20260903190025 77 277 0.0 0.0 0.00 0.51 0.51 77 1012.1
20260903184533 77 277 0.0 0.0 0.00 0.51 0.51 76 1012.3
20260903183022 76 277 0.0 0.9 0.00 0.51 0.51 75 1012.4
20260903181550 76 277 0.9 4.3 0.00 0.52 0.51 79 1012.4
20260903180052 76 267 0.0 0.9 0.00 0.52 0.51 79 1012.5
20260903174545 75 265 2.6 7.8 0.00 0.52 0.51 80 1012.5
20260903173042 75 259 0.0 0.0 0.00 0.52 0.51 81 1012.8
20260903171541 75 201 0.0 0.0 0.00 0.52 0.51 81 1012.7
20260903170040 75 203 0.0 7.8 0.00 0.52 0.51 81 1013.0
20260903164535 74 209 0.9 7.8 0.00 0.52 0.51 83 1013.1
20260903163033 73 241 0.0 6.1 0.00 0.52 0.51 85 1013.0
20260903161527 72 281 2.6 7.0 0.00 0.52 0.51 86 1013.1
20260903160024 71 241 0.9 5.2 0.00 0.52 0.51 88 1013.1
20260903153016 69 299 0.0 0.9 0.00 0.52 0.51 89 1013.3
20260903151515 69 299 0.0 3.5 0.00 0.52 0.51 89 1013.4
20260903150019 68 299 0.0 3.5 0.00 0.52 0.51 90 1013.5
20260903144509 68 301 0.0 2.6 0.00 0.52 0.51 90 1013.6
20260903143009 67 301 0.0 0.0 0.00 0.52 0.51 90 1013.8
20260903141509 66 302 0.0 0.0 0.00 0.52 0.51 90 1014.2
20260903140005 66 302 0.0 0.0 0.00 0.52 0.51 90 1014.3
20260903134600 65 302 0.0 0.0 0.00 0.52 0.51 90 1014.4
20260903133109 65 301 0.0 0.0 0.00 0.52 0.51 90 1014.5
20260903131608 64 302 0.0 0.0 0.00 0.52 0.51 90 1014.5
20260903130112 64 301 0.0 0.0 0.00 0.52 0.51 90 1014.6
20260903124552 64 301 0.0 0.0 0.00 0.52 0.51 90 1014.6
20260903123050 64 302 0.0 0.0 0.00 0.52 0.51 89 1014.8
20260903121549 64 301 0.0 0.0 0.00 0.52 0.51 90 1014.8
20260903120049 64 301 0.0 0.0 0.00 0.52 0.51 89 1015.1
20260903114636 63 301 0.0 0.0 0.00 0.52 0.51 89 1015.3
20260903113041 64 301 0.0 0.0 0.00 0.52 0.51 89 1015.4
20260903111518 63 301 0.0 0.0 0.00 0.52 0.51 89 1015.3
20260903110015 63 301 0.0 0.0 0.00 0.52 0.51 89 1015.0
20260903104514 63 301 0.0 0.0 0.01 0.52 0.51 89 1015.0
20260903103013 63 302 0.0 3.5 0.01 0.52 0.51 89 1015.0
20260903101543 63 302 0.0 5.2 0.01 0.52 0.51 89 1014.9
20260903100042 63 281 3.5 7.0 0.02 0.52 0.51 89 1014.9
20260903094538 63 118 0.0 0.9 0.01 0.51 0.50 89 1014.8
20260903093042 63 117 0.0 3.5 0.01 0.51 0.50 89 1014.7
20260903091539 62 108 0.0 0.0 0.01 0.51 0.50 89 1015.1
20260903090040 62 108 0.0 0.0 0.01 0.50 0.49 89 1015.1
20260903084532 62 107 0.0 0.0 0.13 0.50 0.49 89 1015.1
20260903083132 62 107 0.0 0.0 0.28 0.50 0.49 89 1014.8
20260903081528 61 108 0.0 0.0 0.42 0.50 0.49 88 1015.3
20260903080027 61 108 0.0 0.0 0.48 0.49 0.48 88 1015.4
20260903074521 61 108 0.0 0.0 0.35 0.36 0.35 87 1015.6
20260903073018 62 108 0.0 0.0 0.19 0.20 0.19 86 1016.0
20260903071516 63 108 0.0 0.0 0.06 0.07 0.06 84 1016.3
20260903070015 63 108 0.0 0.9 0.00 0.01 0.00 83 1016.2
20260903064543 63 108 0.0 0.0 0.00 0.01 0.00 83 1016.3
20260903063039 63 108 0.0 0.0 0.00 0.01 0.00 83 1016.7
20260903061506 63 108 0.0 0.0 0.00 0.01 0.00 83 1017.3
20260903060004 63 108 0.0 0.0 0.00 0.01 0.00 83 1017.5
20260903054601 63 108 0.0 0.0 0.00 0.01 0.00 83 1017.7
20260903053030 63 108 0.0 0.0 0.00 0.01 0.00 83 1017.9
20260903051530 63 108 0.0 0.0 0.00 0.01 0.00 82 1017.7
20260903050026 63 108 0.0 0.0 0.00 0.01 0.00 82 1018.1
20260903044524 63 108 0.0 0.0 0.00 0.01 0.00 81 1018.3
20260903043034 63 108 0.0 0.0 0.00 0.01 0.00 81 1018.2
20260903041529 64 108 0.0 0.0 0.00 0.01 0.00 81 1018.3
20260903040021 64 108 0.0 0.0 0.00 0.01 0.00 80 1018.4
20260903034527 64 108 0.0 0.0 0.00 0.01 0.00 80 1018.3
20260903033018 64 108 0.0 0.0 0.00 0.01 0.00 81 1018.3
20260903031515 64 108 0.0 0.0 0.00 0.01 0.00 80 1018.5
20260903030011 64 108 0.0 0.0 0.00 0.01 0.00 80 1018.9
20260903024509 64 108 0.0 0.9 0.00 0.01 0.00 80 1019.1
20260903023008 64 109 0.0 0.0 0.00 0.01 0.00 79 1019.2
20260903020006 64 109 0.0 0.0 0.00 0.01 0.00 78 1019.7
20260903014504 64 109 0.0 0.0 0.00 0.01 0.00 78 1019.3
20260903013003 65 108 0.0 0.0 0.00 0.01 0.00 78 1019.1
20260903011501 65 109 0.0 0.0 0.00 0.01 0.00 79 1019.0
20260903010056 65 109 0.0 0.9 0.00 0.01 0.00 80 1019.3
20260903004556 66 108 0.0 0.0 0.00 0.01 0.00 80 1019.6
20260903003053 66 108 0.0 0.0 0.00 0.01 0.00 79 1019.5
20260903001553 66 108 0.0 0.0 0.00 0.01 0.00 78 1019.4
20260903000049 66 108 0.0 0.0 0.00 0.01 0.00 77 1019.5
20260902234549 67 108 0.0 0.0 0.00 0.01 0.00 77 1019.7
20260902233041 67 108 0.0 0.0 0.00 0.01 0.00 76 1020.0
20260902231541 68 108 0.0 0.0 0.00 0.01 0.00 74 1020.4
20260902230036 68 108 0.0 0.0 0.00 0.01 0.00 74 1020.3
20260902224533 69 108 0.0 0.0 0.00 0.01 0.00 73 1020.5
20260902223031 69 108 0.0 0.0 0.00 0.01 0.00 72 1020.6
20260902221533 70 108 0.0 0.0 0.00 0.01 0.01 71 1020.6
20260902220031 71 108 0.0 0.0 0.00 0.01 0.01 70 1020.3
20260902214526 72 108 0.0 0.0 0.00 0.01 0.01 67 1020.1